Theta_e
309 309 310 318 323 324 326 328 328 325 323 322 321 319 314 311 308 308 302 296 295 293 292 292 292 291 291 290 290 289 288 288 289 289 287 287 287 287 287 286 286 286 286
310 310 309 309 314 319 323 325 325 323 320 319 314 312 308 306 302 299 295 293 293 292 292 291 291 290 290 289 289 288 287 287 287 287 286 286 286 286 286 285 285 285 285
311 311 310 311 314 317 321 321 320 318 313 311 310 307 303 299 295 294 293 293 292 291 291 290 290 289 289 288 287 287 286 286 286 286 286 286 286 286 285 285 285 285 285
309 310 312 313 314 316 316 314 312 310 308 305 302 300 296 294 293 293 292 292 291 290 290 289 289 288 288 287 286 286 286 286 286 286 286 286 286 285 285 285 285 285 284
307 308 309 310 310 310 309 308 307 305 302 299 296 294 293 293 293 292 291 291 290 290 289 289 288 288 287 286 286 286 285 285 286 286 286 286 285 285 285 284 284 284 283
304 305 306 305 305 305 304 302 300 298 296 294 293 293 293 292 291 291 291 290 289 289 288 287 287 286 285 285 285 285 285 285 285 285 285 285 285 284 284 284 284 283 283
302 302 302 302 301 299 298 297 295 293 292 293 293 292 292 291 291 290 290 289 289 288 288 287 286 286 285 285 284 285 284 285 285 285 284 284 284 285 284 284 283 283 282
299 299 299 299 298 296 294 293 292 292 292 292 292 291 291 290 290 290 289 288 288 287 287 286 286 285 285 284 285 284 284 284 284 284 284 284 285 284 284 283 283 282 282
296 296 296 296 295 293 292 292 292 292 291 291 290 290 290 290 290 289 288 287 286 286 285 285 284 283 283 284 284 284 284 284 284 284 284 284 283 283 283 282 282 282 282
295 296 295 295 294 292 292 291 291 291 291 290 289 289 289 289 288 288 287 286 286 285 285 284 283 283 283 284 284 284 284 283 284 284 285 284 283 283 282 282 282 282 282
296 296 294 293 293 292 292 291 291 290 289 288 288 288 288 288 287 287 286 286 285 285 284 284 283 283 283 284 285 284 283 283 283 282 282 283 283 283 282 281 281 281 281
295 294 293 292 292 291 291 290 289 289 288 287 287 287 287 287 286 286 285 285 284 284 283 283 282 283 283 284 285 284 284 283 281 280 281 281 281 281 281 281 281 280 280
293 292 292 291 291 291 290 289 288 287 287 286 286 285 286 285 284 284 284 284 283 283 283 282 282 283 283 282 283 283 282 281 279 279 280 280 280 279 279 280 280 280 280
290 290 290 290 290 289 289 288 288 287 286 286 285 285 284 284 283 283 283 283 283 282 282 282 282 282 282 282 281 281 280 279 278 277 278 278 277 278 278 278 278 278 279
289 289 289 288 288 288 287 287 287 288 289 289 287 286 286 284 284 283 283 282 282 282 281 282 281 281 281 280 278 278 277 277 276 276 276 275 275 275 275 276 276 276 276
288 287 287 286 286 285 285 286 287 289 288 287 286 286 285 284 283 282 281 282 281 281 281 280 279 278 277 277 276 275 275 275 274 274 274 273 272 273 273 274 274 275 276
289 287 286 286 285 286 286 286 286 285 284 283 283 283 283 283 282 281 281 281 280 280 279 278 277 277 276 275 274 274 273 273 273 272 272 272 271 271 272 272 272 273 275
288 287 287 286 286 284 284 283 282 281 281 282 281 281 281 281 280 280 280 280 278 278 278 276 276 275 275 274 274 273 273 272 272 271 271 271 270 270 270 271 271 271 272
287 287 286 285 285 285 284 283 282 281 281 281 280 280 280 279 279 279 279 278 278 277 277 275 275 274 274 273 272 272 271 271 270 270 270 269 269 269 269 269 269 270 270
287 287 286 285 284 283 283 282 281 281 280 279 279 279 279 277 278 277 277 277 276 276 275 274 274 273 273 272 271 271 270 270 269 269 268 268 268 268 268 268 268 267 268
285 284 284 283 283 283 282 281 280 279 278 278 279 279 278 278 277 277 277 276 276 275 274 273 273 272 271 271 270 270 269 269 269 268 268 268 267 267 267 267 267 267 267
284 284 283 282 282 281 281 280 279 278 277 277 277 276 276 275 275 274 275 275 274 274 272 271 271 271 270 269 269 268 268 268 268 267 267 267 267 266 266 266 266 266 266
280 280 280 279 279 278 277 277 276 276 275 275 275 275 275 274 273 273 273 273 273 272 271 270 270 270 269 269 268 268 267 268 268 266 266 266 266 266 265 265 265 264 264
277 277 277 277 276 275 274 274 274 273 273 273 273 273 273 273 273 272 273 272 271 270 269 269 268 268 269 268 268 268 267 267 267 266 265 265 266 265 264 264 264 264 263
274 274 273 273 273 273 273 272 273 274 273 273 273 272 272 272 272 271 271 270 270 269 268 268 268 267 267 267 267 267 266 266 265 265 265 264 265 265 264 264 263 263 263
272 271 271 270 270 270 270 270 270 270 270 270 270 271 271 270 270 270 270 269 269 268 267 267 267 267 266 265 265 265 264 264 264 263 263 263 263 263 264 264 263 263 263
Wind_Speed
23 24 25 28 26 26 28 27 27 28 26 25 24 23 20 19 17 16 16 17 15 14 12 10 8 7 6 7 7 8 8 7 2 5 11 17 18 20 21 24 24 25 27
21 22 24 25 27 26 26 29 30 31 29 27 25 24 22 20 18 18 19 16 14 13 11 9 7 6 5 6 7 8 9 7 6 9 14 17 20 24 25 26 27 24 30
17 20 21 23 26 29 30 33 32 32 30 28 26 26 25 23 22 20 18 16 14 12 10 8 7 6 6 6 8 9 10 7 7 8 12 17 19 21 27 24 23 24 25
19 21 24 26 28 32 35 34 33 31 31 30 28 27 26 25 22 20 17 15 13 11 9 7 7 6 7 6 7 8 8 10 10 10 13 16 19 22 21 25 27 24 28
20 23 25 27 29 32 33 33 32 31 31 30 30 27 26 23 21 19 16 15 12 11 9 8 7 6 7 6 6 7 8 10 9 12 14 15 20 22 21 23 24 27 30
23 23 25 27 29 32 32 32 32 32 32 31 29 27 25 21 20 17 15 14 12 11 11 10 8 7 6 5 5 4 5 8 10 11 12 14 18 18 18 21 22 23 18
24 24 27 29 31 32 33 33 34 33 31 29 28 25 22 20 18 16 14 14 12 12 11 11 8 5 4 3 4 4 5 6 6 10 13 15 17 18 23 23 20 19 21
26 28 29 32 34 34 34 34 34 32 30 29 26 23 21 19 18 15 14 12 12 11 10 9 6 4 2 2 1 4 6 8 8 10 12 16 17 20 19 20 22 25 21
30 32 33 34 36 36 35 34 32 31 28 26 24 22 20 18 16 14 13 12 11 10 8 7 5 3 4 2 2 5 8 11 9 10 11 13 16 15 14 17 16 17 21
37 37 36 37 38 37 35 34 31 29 27 24 22 21 19 18 15 14 13 14 13 11 9 6 4 2 1 1 5 8 12 14 13 15 17 17 16 14 11 12 15 16 17
37 37 38 37 38 37 35 32 30 28 25 24 22 21 20 17 15 15 15 14 12 11 9 8 7 8 8 6 7 11 13 13 16 19 17 16 17 13 13 13 14 15 17
37 38 38 36 36 34 34 30 29 28 27 25 22 20 19 17 17 17 16 15 13 11 8 7 7 8 7 8 11 13 12 14 18 14 12 12 13 15 17 17 18 17 19
37 37 38 36 35 34 34 31 30 29 28 26 24 23 20 19 20 19 17 15 13 12 9 8 7 7 8 9 10 11 13 16 14 11 12 12 13 17 17 19 18 16 17
35 37 39 37 36 34 32 32 33 31 28 25 26 23 23 23 24 23 20 17 16 14 12 12 12 12 11 13 12 13 14 11 12 11 12 14 17 19 20 20 21 19 17
32 34 36 35 36 35 33 33 31 28 28 29 30 28 26 29 29 24 22 20 17 14 13 14 12 13 15 15 13 11 10 9 10 11 14 17 16 16 18 19 19 16 12
30 32 33 33 33 33 33 27 26 24 25 28 27 25 26 24 21 23 22 18 13 14 17 16 15 14 14 12 11 9 8 8 9 11 14 14 15 15 15 17 17 14 14
33 32 32 33 34 35 34 32 29 27 26 25 25 25 25 24 22 21 20 16 16 20 19 17 17 15 14 12 10 9 9 10 10 11 12 13 14 15 16 15 14 13 13
27 31 35 37 37 35 34 32 29 31 29 27 24 22 21 21 21 19 17 16 22 23 21 20 18 15 13 12 11 11 10 10 10 11 12 13 13 14 13 14 12 12 12
25 26 30 31 33 33 33 33 33 31 30 28 24 23 24 20 19 19 19 27 27 26 24 21 17 15 14 12 12 12 11 11 11 10 11 12 12 12 13 13 12 13 12
24 26 28 30 31 31 32 32 32 33 33 31 28 32 28 25 26 28 28 30 27 25 23 21 18 16 15 14 13 12 12 12 11 12 12 12 12 12 13 12 13 11 12
22 23 24 25 27 30 31 33 33 33 32 33 35 34 29 31 34 35 33 33 30 26 24 22 19 17 16 15 15 14 14 14 13 13 14 14 13 13 13 12 13 13 13
20 22 24 25 26 26 29 31 32 32 32 33 32 28 23 28 32 33 31 30 29 25 22 21 19 18 17 17 16 16 16 16 15 14 16 15 14 14 13 14 14 14 13
18 20 21 23 24 25 26 27 28 29 30 31 29 26 25 31 33 31 29 27 25 23 22 23 22 20 18 18 18 19 19 19 17 17 18 17 17 16 15 16 16 15 15
14 18 20 22 22 23 25 26 27 27 27 28 27 28 29 30 33 31 28 26 25 23 23 24 23 22 20 20 20 20 21 20 20 20 19 20 20 18 18 18 18 17 17
11 14 18 20 22 23 24 26 28 29 29 30 31 30 29 28 30 30 28 26 24 23 24 24 24 23 22 21 21 20 21 21 23 22 21 22 21 21 20 20 20 18 17
9 12 15 17 20 22 23 24 26 26 28 28 29 29 29 29 28 27 26 26 25 25 24 24 23 22 22 23 22 21 22 22 24 23 22 22 23 23 21 20 20 20 19
Wind_Direction
205 208 211 211 212 218 217 210 198 188 184 177 178 174 173 169 162 159 148 143 140 130 127 121 111 98 78 61 49 41 38 35 348 309 327 339 344 346 349 348 346 343 339
205 209 210 208 205 205 207 193 187 179 176 174 172 168 165 160 157 153 146 141 135 136 130 124 112 98 82 63 54 47 37 37 14 339 327 340 341 347 343 342 341 342 343
195 196 195 194 192 196 193 183 178 174 171 170 170 165 161 156 152 149 147 147 144 139 135 131 120 116 98 78 61 51 39 31 16 344 325 330 335 343 341 342 340 338 338
184 186 181 183 187 187 180 175 172 173 169 165 164 159 156 153 153 153 150 145 148 138 131 126 120 115 98 85 67 49 32 18 12 349 337 336 340 339 340 338 339 343 340
185 182 178 179 180 177 174 171 168 169 166 162 157 155 155 156 158 157 153 154 153 145 143 136 129 113 105 89 57 36 24 13 360 350 343 338 335 336 340 338 333 335 338
188 182 175 173 173 172 170 167 164 164 162 160 157 158 158 161 161 158 162 163 161 158 150 143 131 110 100 85 66 51 27 359 348 337 330 324 323 323 326 331 332 341 342
187 182 177 174 171 170 167 164 164 162 160 160 159 162 162 164 166 168 170 171 163 161 155 152 144 137 109 70 42 29 358 346 332 320 312 313 310 315 326 326 329 327 321
187 183 181 178 174 170 168 167 164 164 164 164 163 165 166 169 175 173 176 167 167 163 161 165 162 168 184 95 5 347 331 332 321 311 304 311 315 319 316 318 315 318 316
186 185 182 179 174 171 171 170 168 168 168 170 169 170 174 172 177 176 173 172 173 168 169 171 183 193 142 131 313 314 312 305 304 300 299 302 311 310 310 318 315 320 317
189 187 184 182 179 176 175 173 174 174 172 174 173 178 177 176 177 176 180 186 180 174 177 185 197 205 186 227 311 315 306 311 311 301 298 303 308 319 316 311 314 308 308
191 188 186 186 184 181 178 178 177 175 175 176 178 177 180 182 186 194 198 200 199 192 197 207 222 230 238 243 276 286 302 311 297 299 293 295 305 313 323 317 311 296 292
191 189 187 186 186 182 181 179 181 178 178 175 177 180 186 192 199 205 204 204 206 209 213 225 236 236 239 259 266 270 280 289 304 308 303 308 305 318 319 318 317 298 292
189 187 186 186 187 186 184 182 181 183 181 182 185 188 191 199 207 203 205 205 210 226 230 237 244 251 259 263 257 269 268 293 304 310 304 302 303 312 313 313 312 307 299
180 183 186 185 186 188 190 191 189 186 188 191 194 198 204 208 209 210 208 211 218 228 239 248 252 251 248 249 255 261 273 282 297 303 306 306 305 311 312 316 316 319 308
180 182 183 187 189 188 194 195 195 198 205 208 209 208 215 212 217 217 215 218 226 232 242 251 252 236 240 248 255 261 276 286 295 301 305 307 308 311 314 319 317 313 294
176 179 183 187 188 190 192 193 203 215 220 220 223 227 223 227 224 219 214 221 225 228 238 247 242 240 245 250 259 272 285 292 300 306 308 308 308 310 312 315 316 304 293
186 184 187 189 193 195 197 202 202 213 217 222 224 222 218 223 221 215 215 218 221 230 239 244 245 245 250 257 268 280 290 300 303 304 302 304 306 305 308 310 313 304 298
198 196 195 195 198 199 202 205 201 198 203 209 214 218 220 220 218 214 214 216 220 232 239 241 246 249 254 261 270 278 287 294 298 301 302 303 304 302 304 307 308 301 301
212 210 209 207 206 209 211 213 215 215 218 221 214 210 214 212 214 216 214 228 235 240 242 244 248 251 256 262 270 276 284 292 296 299 297 295 298 298 301 303 304 302 304
222 222 218 217 215 216 218 219 221 223 225 226 221 222 215 209 212 218 220 230 238 241 247 248 249 251 255 259 264 271 277 281 284 286 289 289 292 292 295 300 300 299 300
226 225 225 224 224 224 224 225 226 227 229 231 233 234 230 227 230 231 229 233 240 245 250 250 247 249 254 259 262 265 270 273 277 278 280 281 284 289 292 293 294 296 296
240 235 231 230 231 230 231 232 232 234 236 239 241 240 233 237 238 242 239 240 244 248 250 250 249 250 254 256 262 265 267 273 274 274 274 278 282 285 290 292 295 296 296
258 250 245 241 241 241 241 241 241 242 244 246 247 247 239 235 242 242 243 245 246 248 248 250 252 252 254 259 261 265 268 272 276 272 271 275 276 281 282 283 287 290 292
272 260 256 255 254 251 252 253 253 252 253 256 256 252 247 243 243 244 246 248 248 249 248 251 254 258 256 256 260 263 266 270 270 270 272 271 275 277 278 279 282 286 287
287 278 268 264 262 260 259 258 258 259 259 259 258 253 251 248 246 246 246 247 248 248 249 252 257 260 260 261 260 261 262 264 265 265 264 266 270 273 273 276 279 280 280
297 287 280 274 268 266 264 263 263 264 264 263 259 256 252 249 248 249 248 248 248 248 250 251 254 258 262 264 265 265 265 266 267 266 263 263 266 268 269 270 272 271 276